DW8433 Weather Reports


Display with metric or nautical units.
time (UTC)temp
F
wind
direction
speed
MPH
gust
MPH
rain 1hr
in
rain 24hr
in
rain mn
in
humidity
%
barometer
mb
20260507043006 58 204 3.0 3.0 0.00 0.00 0.00 74 1011.3
20260507041007 59 199 2.0 5.0 0.00 0.00 0.00 71 1011.3
20260507034006 59 198 0.0 3.0 0.00 0.00 0.00 69 1011.2
20260507033007 60 193 1.0 3.0 0.00 0.00 0.00 69 1011.1
20260507032006 61 213 1.0 3.0 0.00 0.00 0.00 69 1011.0
20260507025006 64 215 3.0 6.0 0.00 0.00 0.00 61 1011.3
20260507024006 65 215 1.0 5.0 0.00 0.00 0.00 59 1011.4
20260507021006 67 202 4.0 9.0 0.00 0.00 0.00 53 1011.5
20260507020005 67 217 2.0 3.0 0.00 0.00 0.00 54 1011.5
20260507015006 68 234 2.0 5.0 0.00 0.00 0.00 49 1011.4
20260507011006 69 281 3.0 7.0 0.00 0.00 0.00 47 1011.5
20260507004006 70 256 3.0 8.0 0.00 0.00 0.00 46 1011.3
20260507001006 72 229 2.0 9.0 0.00 0.00 0.00 47 1011.1
20260506235006 72 281 2.0 13.0 0.00 0.00 0.00 48 1011.1
20260506233006 72 308 5.0 9.0 0.00 0.00 0.00 46 1011.1
20260506232006 73 317 4.0 10.0 0.00 0.00 0.00 47 1011.2
20260506225006 72 265 6.0 12.0 0.00 0.00 0.00 45 1011.6
20260506223006 72 211 5.0 12.0 0.00 0.00 0.00 45 1011.8
20260506221007 72 314 5.0 16.0 0.00 0.00 0.00 46 1011.9
20260506220004 73 217 2.0 6.0 0.00 0.00 0.00 48 1012.0
20260506213006 73 237 9.0 17.0 0.00 0.00 0.00 43 1012.5
20260506210005 73 306 6.0 13.0 0.00 0.00 0.00 44 1012.5
20260506205006 73 42 3.0 21.0 0.00 0.00 0.00 50 1012.7
20260506200004 72 204 3.0 12.0 0.00 0.00 0.00 46 1012.9
20260506195006 71 336 3.0 13.0 0.00 0.00 0.00 46 1012.9
20260506194006 72 293 4.0 12.0 0.00 0.00 0.00 44 1013.0
20260506193005 71 286 6.0 12.0 0.00 0.00 0.00 44 1013.0
20260506192006 72 288 6.0 17.0 0.00 0.00 0.00 42 1012.9
20260506191006 72 272 3.0 16.0 0.00 0.00 0.00 42 1013.0
20260506190004 71 228 6.0 15.0 0.00 0.00 0.00 47 1013.0
20260506185005 71 349 3.0 15.0 0.00 0.00 0.00 46 1013.0
20260506183006 71 314 1.0 6.0 0.00 0.00 0.00 49 1013.2
20260506182006 70 19 4.0 8.0 0.00 0.00 0.00 44 1013.3
20260506175006 68 115 4.0 10.0 0.00 0.00 0.00 45 1013.6
20260506174006 68 91 6.0 10.0 0.00 0.00 0.00 44 1013.8
20260506173006 67 94 5.0 10.0 0.00 0.00 0.00 47 1013.9
20260506171007 66 84 5.0 10.0 0.00 0.00 0.00 46 1014.1
20260506165007 64 86 8.0 13.0 0.00 0.00 0.00 46 1014.1
20260506163008 63 96 7.0 14.0 0.00 0.00 0.00 47 1014.3
20260506162007 62 89 8.0 12.0 0.00 0.00 0.00 49 1014.3
20260506160005 60 126 7.0 10.0 0.00 0.00 0.00 53 1014.5
20260506155007 57 87 3.0 6.0 0.00 0.00 0.00 63 1014.7
20260506153007 53 183 3.0 3.0 0.00 0.00 0.00 68 1014.8
20260506152007 52 125 2.0 3.0 0.00 0.00 0.00 72 1015.1
20260506151008 50 127 3.0 6.0 0.00 0.00 0.00 73 1015.2
20260506150006 49 101 2.0 3.0 0.00 0.00 0.00 74 1015.1
20260506144007 46 148 2.0 3.0 0.00 0.00 0.00 82 1015.4
20260506143007 44 149 0.0 0.0 0.00 0.00 0.00 86 1015.4
20260506142007 43 156 0.0 0.0 0.00 0.00 0.00 87 1015.5
20260506135006 37 205 0.0 0.0 0.00 0.00 0.00 96 1015.6
20260506134007 36 205 0.0 0.0 0.00 0.00 0.00 96 1015.6
20260506133007 34 205 0.0 0.0 0.00 0.00 0.00 95 1015.5
20260506132007 33 205 0.0 0.0 0.00 0.00 0.00 95 1015.6
20260506123007 32 205 0.0 0.0 0.00 0.00 0.00 92 1015.2
20260506121007 32 205 0.0 0.0 0.00 0.00 0.00 91 1015.1
20260506115007 33 205 0.0 0.0 0.00 0.00 0.00 91 1015.0
20260506114007 33 205 0.0 0.0 0.00 0.00 0.00 91 1014.9
20260506113007 33 205 0.0 0.0 0.00 0.00 0.00 91 1014.9
20260506112007 33 205 0.0 0.0 0.00 0.00 0.00 91 1014.9
20260506105007 34 205 0.0 0.0 0.00 0.00 0.00 91 1014.9
20260506103007 34 205 0.0 0.0 0.00 0.00 0.00 90 1014.9
20260506101007 35 205 0.0 0.0 0.00 0.00 0.00 90 1014.9
20260506095007 35 205 0.0 0.0 0.00 0.00 0.00 90 1014.7
20260506094007 36 205 0.0 0.0 0.00 0.00 0.00 90 1014.8
20260506090004 37 205 0.0 0.0 0.00 0.00 0.00 89 1014.7
20260506084006 37 205 1.0 2.0 0.00 0.00 0.00 88 1014.5
20260506073007 39 225 1.0 2.0 0.00 0.00 0.00 87 1014.1
20260506072007 39 225 2.0 3.0 0.00 0.00 0.00 86 1014.0
20260506071006 39 225 1.0 2.0 0.00 0.00 0.00 86 1013.9